Satellite-Ground Cal/Val Region Overpasses Predictions

Prediction of Satellite NPP Overpassing Cal/Val Region: PacNW

Region Location: (Latitude: 10.00, Longitude: 139.50) to (Latitude: 22.70, Longitude: 165.60).

Table of predicted overpasses for the next 14.0 days since TLE Epoch: 8/17/2012
Interval Starting Time Starting Location Ending Time Ending Location
1 08/17/2012 15:53:42 ( 22.69, 146.03) 08/17/2012 15:57:18 ( 10.01, 143.01)
2 08/18/2012 03:02:46 ( 10.01, 153.56) 08/18/2012 03:06:22 ( 22.68, 150.54)
3 08/18/2012 15:34:40 ( 22.66, 150.77) 08/18/2012 15:38:15 ( 10.03, 147.77)
4 08/19/2012 02:43:45 ( 10.04, 158.31) 08/19/2012 02:47:20 ( 22.66, 155.31)
5 08/19/2012 15:15:38 ( 22.68, 155.54) 08/19/2012 15:19:13 ( 10.05, 152.54)
6 08/20/2012 02:24:43 ( 10.02, 163.07) 08/20/2012 02:28:19 ( 22.70, 160.05)
7 08/20/2012 14:56:35 ( 22.70, 160.30) 08/20/2012 15:00:11 ( 10.02, 157.28)
8 08/21/2012 02:08:22 ( 19.51, 165.60) 08/21/2012 02:09:16 ( 22.68, 164.82)
9 08/21/2012 03:47:10 ( 10.01, 142.45) 08/21/2012 03:50:41 ( 22.39, 139.51)
10 08/21/2012 14:37:34 ( 22.66, 165.05) 08/21/2012 14:41:09 ( 10.03, 162.05)
11 08/21/2012 16:19:04 ( 22.65, 139.67) 08/21/2012 16:19:15 ( 22.01, 139.51)
12 08/22/2012 03:28:09 ( 10.05, 147.20) 08/22/2012 03:31:44 ( 22.67, 144.20)
13 08/22/2012 16:00:01 ( 22.67, 144.43) 08/22/2012 16:03:36 ( 10.05, 141.43)
14 08/23/2012 03:09:06 ( 10.03, 151.96) 08/23/2012 03:12:41 ( 22.65, 148.96)
15 08/23/2012 15:40:59 ( 22.69, 149.19) 08/23/2012 15:44:35 ( 10.00, 146.18)
16 08/24/2012 02:50:04 ( 10.01, 156.73) 08/24/2012 02:53:40 ( 22.69, 153.71)
17 08/24/2012 15:21:57 ( 22.64, 153.94) 08/24/2012 15:25:32 ( 10.02, 150.94)
18 08/25/2012 02:31:02 ( 10.05, 161.47) 08/25/2012 02:34:37 ( 22.67, 158.47)
19 08/25/2012 15:02:55 ( 22.66, 158.70) 08/25/2012 15:06:30 ( 10.04, 155.70)
20 08/26/2012 02:12:48 ( 12.86, 165.59) 08/26/2012 02:15:35 ( 22.66, 163.24)
21 08/26/2012 03:53:30 ( 10.04, 140.86) 08/26/2012 03:55:09 ( 15.86, 139.51)
22 08/26/2012 14:43:53 ( 22.67, 163.46) 08/26/2012 14:47:28 ( 10.05, 160.46)
23
